Simultaneous Nadir Overpasses (SNOs) Predictions

Prediction of SNOs between NOAA-19 and METOP-C Satellite Orbit:

Table of predicted SNOs for the next 14.0 days since TLE Epoch: 6/26/2021
Index Date (NOAA-19) Time (NOAA-19) Lat,Lon (NOAA-19) SZA (NOAA-19 ) Date (METOP-C) Time (METOP-C) Lat,Lon (METOP-C) SZA (METOP-C ) Distance(km) Time Diff (sec)
1 06/28/2021 06:20:48 80.55, 113.33 58.42 06/28/2021 06:21:48 80.56, 113.41 58.44 1.51 60
2 06/28/2021 07:11:46 -80.54, -79.20 121.58 06/28/2021 07:12:30 -80.55, -79.27 121.56 1.71 44
3 06/28/2021 08:02:48 80.55, 87.94 58.42 06/28/2021 08:03:10 80.54, 87.93 58.43 0.62 22
4 06/28/2021 08:53:46 -80.54,-104.58 121.57 06/28/2021 08:53:52 -80.54,-104.75 121.58 3.20 6
5 06/28/2021 09:44:48 80.55, 62.55 58.43 06/28/2021 09:44:32 80.53, 62.44 58.41 2.35 16
6 06/28/2021 10:35:47 -80.55,-130.31 121.58 06/28/2021 10:35:14 -80.53,-130.24 121.60 2.26 33
7 06/28/2021 11:26:48 80.54, 37.16 58.44 06/28/2021 11:25:53 80.55, 37.28 58.44 2.44 55
8 06/28/2021 12:17:46 -80.53,-155.35 121.55 06/28/2021 12:16:35 -80.55,-155.40 121.57 2.03 71
9 07/09/2021 08:24:36 -80.62, -98.76 120.71 07/09/2021 08:25:49 -80.55, -97.61 120.65 21.96 73
10 07/09/2021 09:15:31 80.57, 69.74 59.35 07/09/2021 09:16:28 80.57, 69.93 59.38 3.36 57
11 07/09/2021 10:06:32 -80.56,-122.75 120.64 07/09/2021 10:07:10 -80.57,-122.77 120.62 1.22 38
12 07/09/2021 10:57:31 80.56, 44.35 59.36 07/09/2021 10:57:50 80.56, 44.44 59.37 1.76 19
13 07/09/2021 11:48:32 -80.55,-148.14 120.63 07/09/2021 11:48:32 -80.56,-148.26 120.63 2.25 0
14 07/09/2021 12:39:31 80.56, 18.95 59.38 07/09/2021 12:39:12 80.55, 18.95 59.36 1.32 19
15 07/09/2021 13:30:33 -80.56,-173.88 120.63 07/09/2021 13:29:54 -80.55,-173.75 120.65 2.96 39
16 07/09/2021 14:21:31 80.56, -6.44 59.39 07/09/2021 14:20:34 80.54, -6.54 59.34 2.67 57



Historial Predications of SNOs between NOAA-19 and METOP-C
